| time (UTC) | temp F | wind direction | speed MPH | gust MPH | rain 1hr in | rain 24hr in | rain mn in | humidity % | barometer mb |
| 20260504184553 | 71 | 148 | 4.0 | 13.0 | 0.00 | 0.00 | 0.00 | 37 | 1006.1 |
| 20260504183054 | 71 | 149 | 5.0 | 11.0 | 0.00 | 0.00 | 0.00 | 39 | 1006.4 |
| 20260504181557 | 68 | 157 | 4.0 | 12.0 | 0.00 | 0.00 | 0.00 | 41 | 1006.6 |
| 20260504180054 | 69 | 141 | 4.0 | 12.0 | 0.00 | 0.00 | 0.00 | 40 | 1006.7 |
| 20260504174551 | 68 | 142 | 4.0 | 14.0 | 0.00 | 0.02 | 0.00 | 41 | 1006.8 |
| 20260504173053 | 69 | 159 | 5.0 | 18.0 | 0.00 | 0.02 | 0.00 | 43 | 1006.9 |
| 20260504171553 | 70 | 172 | 4.0 | 12.0 | 0.00 | 0.02 | 0.00 | 41 | 1006.9 |
| 20260504090106 | 48 | 148 | 4.0 | 8.0 | 0.00 | 0.02 | 0.00 | 56 | 1009.0 |
| 20260504081553 | 49 | 158 | 4.0 | 12.0 | 0.00 | 0.02 | 0.00 | 55 | 1009.2 |
| 20260504044609 | 49 | 149 | 1.0 | 4.0 | 0.00 | 0.02 | 0.00 | 51 | 1009.9 |
| 20260504043055 | 50 | 157 | 1.0 | 3.0 | 0.00 | 0.02 | 0.00 | 51 | 1009.9 |
| 20260504041552 | 50 | 163 | 0.0 | 3.0 | 0.00 | 0.02 | 0.00 | 49 | 1009.9 |
| 20260504040106 | 50 | 0 | 0.0 | 2.0 | 0.00 | 0.02 | 0.00 | 49 | 1009.9 |
| 20260504034607 | 50 | 163 | 0.0 | 2.0 | 0.00 | 0.02 | 0.02 | 53 | 1009.9 |
| 20260504033055 | 51 | 0 | 0.0 | 2.0 | 0.00 | 0.02 | 0.02 | 50 | 1010.1 |
| 20260504031550 | 51 | 0 | 0.0 | 2.0 | 0.00 | 0.02 | 0.02 | 49 | 1010.3 |
| 20260504030056 | 51 | 163 | 0.0 | 2.0 | 0.00 | 0.02 | 0.02 | 52 | 1010.3 |
| 20260504024550 | 50 | 163 | 0.0 | 2.0 | 0.00 | 0.02 | 0.02 | 53 | 1010.4 |
| 20260504023048 | 51 | 0 | 0.0 | 1.0 | 0.00 | 0.02 | 0.02 | 49 | 1010.3 |
| 20260504021553 | 52 | 0 | 0.0 | 3.0 | 0.00 | 0.02 | 0.02 | 48 | 1010.5 |
| 20260504020050 | 52 | 157 | 1.0 | 5.0 | 0.00 | 0.02 | 0.02 | 48 | 1010.4 |
| 20260504014554 | 52 | 203 | 1.0 | 6.0 | 0.00 | 0.02 | 0.02 | 48 | 1010.3 |
| 20260504013111 | 52 | 203 | 4.0 | 15.0 | 0.00 | 0.02 | 0.02 | 47 | 1010.4 |
| 20260504011552 | 53 | 225 | 2.0 | 11.0 | 0.00 | 0.02 | 0.02 | 46 | 1010.7 |
| 20260504010058 | 54 | 181 | 2.0 | 13.0 | 0.00 | 0.02 | 0.02 | 44 | 1010.3 |
| 20260504004607 | 53 | 184 | 4.0 | 16.0 | 0.00 | 0.02 | 0.02 | 45 | 1010.1 |
| 20260504003049 | 53 | 204 | 3.0 | 8.0 | 0.00 | 0.02 | 0.02 | 47 | 1010.3 |
| 20260504001552 | 53 | 240 | 5.0 | 12.0 | 0.00 | 0.02 | 0.02 | 47 | 1010.3 |
| 20260504000056 | 53 | 218 | 3.0 | 10.0 | 0.00 | 0.02 | 0.02 | 47 | 1010.2 |
| 20260503234552 | 53 | 226 | 3.0 | 12.0 | 0.00 | 0.02 | 0.02 | 46 | 1010.0 |
| 20260503233100 | 54 | 234 | 6.0 | 19.0 | 0.00 | 0.02 | 0.02 | 44 | 1010.0 |
| 20260503231553 | 54 | 234 | 1.0 | 6.0 | 0.00 | 0.02 | 0.02 | 45 | 1009.6 |
| 20260503230058 | 54 | 207 | 2.0 | 7.0 | 0.00 | 0.02 | 0.02 | 44 | 1009.4 |
| 20260503224557 | 55 | 252 | 1.0 | 9.0 | 0.00 | 0.02 | 0.02 | 44 | 1009.2 |
| 20260503223052 | 54 | 155 | 0.0 | 5.0 | 0.00 | 0.02 | 0.02 | 47 | 1009.4 |
| 20260503221550 | 54 | 175 | 1.0 | 7.0 | 0.00 | 0.02 | 0.02 | 45 | 1009.4 |
| 20260503220056 | 54 | 201 | 2.0 | 7.0 | 0.00 | 0.02 | 0.02 | 45 | 1009.5 |
| 20260503214550 | 54 | 233 | 2.0 | 8.0 | 0.00 | 0.02 | 0.02 | 45 | 1009.5 |
| 20260503213048 | 55 | 214 | 1.0 | 10.0 | 0.00 | 0.02 | 0.02 | 43 | 1009.5 |
| 20260503211549 | 55 | 210 | 2.0 | 8.0 | 0.00 | 0.02 | 0.02 | 45 | 1009.5 |
| 20260503210052 | 54 | 228 | 2.0 | 8.0 | 0.00 | 0.02 | 0.02 | 46 | 1009.6 |
| 20260503204551 | 53 | 226 | 2.0 | 9.0 | 0.00 | 0.02 | 0.02 | 46 | 1009.8 |
| 20260503203054 | 53 | 200 | 3.0 | 10.0 | 0.00 | 0.02 | 0.02 | 46 | 1009.9 |
| 20260503201550 | 52 | 159 | 3.0 | 14.0 | 0.00 | 0.02 | 0.02 | 47 | 1010.1 |
| 20260503200050 | 53 | 219 | 3.0 | 16.0 | 0.00 | 0.02 | 0.02 | 44 | 1010.0 |
| 20260503194551 | 53 | 206 | 3.0 | 13.0 | 0.00 | 0.02 | 0.02 | 45 | 1010.2 |
| 20260503193050 | 53 | 192 | 3.0 | 12.0 | 0.00 | 0.02 | 0.02 | 45 | 1010.5 |
| 20260503191553 | 53 | 252 | 1.0 | 6.0 | 0.00 | 0.02 | 0.02 | 43 | 1010.5 |
| 20260503190058 | 52 | 219 | 2.0 | 9.0 | 0.00 | 0.02 | 0.02 | 44 | 1010.4 |